GFSNIL_prec_precacc_189.txt.gz
Total_Precipitation_Accumulation
1.47 1.49 1.56 1.54 1.51 1.45 1.41 1.37 1.37 1.41 1.25 1.27 1.40 1.61 1.73 1.58 1.44 1.36 1.35 1.34 1.37 1.40
0.91 0.97 0.85 0.88 0.78 0.78 0.95 1.05 1.12 1.22 1.32 1.26 1.29 1.35 1.36 1.31 1.22 1.16 1.01 0.95 0.99 1.04
0.32 0.52 0.68 0.65 0.61 0.43 0.51 0.70 1.21 1.17 0.88 0.89 0.94 1.13 1.41 1.40 1.22 1.19 1.18 1.09 1.08 1.08
0.18 0.27 0.25 0.24 0.32 0.34 0.36 0.46 0.72 1.00 1.16 1.04 0.89 0.87 0.93 0.94 1.03 1.22 1.24 1.26 1.25 1.13
0.06 0.06 0.08 0.07 0.07 0.06 0.05 0.06 0.09 0.14 0.22 0.30 0.47 0.60 0.62 0.64 0.68 0.74 0.82 0.89 1.02 0.97
0.04 0.04 0.06 0.07 0.07 0.07 0.07 0.08 0.07 0.05 0.05 0.06 0.06 0.07 0.11 0.20 0.33 0.47 0.60 0.69 0.70 0.66
0.08 0.07 0.07 0.06 0.06 0.06 0.07 0.07 0.06 0.08 0.08 0.07 0.06 0.08 0.13 0.17 0.20 0.23 0.28 0.36 0.48 0.58
0.08 0.09 0.07 0.05 0.07 0.07 0.06 0.06 0.04 0.08 0.15 0.17 0.17 0.16 0.13 0.13 0.14 0.18 0.23 0.27 0.31 0.33
0.08 0.08 0.09 0.08 0.05 0.08 0.08 0.08 0.12 0.11 0.11 0.14 0.18 0.36 0.28 0.18 0.16 0.18 0.23 0.28 0.36 0.45
0.13 0.20 0.20 0.15 0.13 0.11 0.15 0.24 0.23 0.22 0.26 0.25 0.24 0.35 0.29 0.34 0.36 0.42 0.47 0.48 0.45 0.37
0.48 0.52 0.60 0.75 0.63 0.64 0.52 0.46 0.54 0.56 0.58 0.64 0.76 0.80 0.68 0.55 0.44 0.46 0.48 0.45 0.40 0.33
0.70 0.74 0.84 1.06 1.14 0.80 0.97 0.78 0.78 0.68 0.55 0.60 0.71 0.67 0.50 0.45 0.39 0.29 0.19 0.14 0.07 0.03
0.75 0.73 0.89 0.99 0.98 0.72 0.61 0.66 0.58 0.63 0.60 0.51 0.43 0.32 0.20 0.12 0.08 0.06 0.02 0.01 0.00 0.02
0.73 0.45 0.61 0.69 0.62 0.47 0.37 0.42 0.43 0.40 0.33 0.23 0.15 0.08 0.05 0.05 0.04 0.03 0.04 0.03 0.01 0.00

GFSNIL_prec_precacc_192.txt.gz
Total_Precipitation_Accumulation
1.48 1.49 1.57 1.54 1.51 1.45 1.41 1.37 1.37 1.41 1.25 1.27 1.40 1.61 1.73 1.58 1.44 1.36 1.35 1.34 1.37 1.40
0.96 1.07 0.95 0.97 0.82 0.79 0.95 1.05 1.12 1.22 1.32 1.26 1.29 1.35 1.36 1.31 1.22 1.16 1.01 0.95 0.99 1.04
0.34 0.56 0.71 0.67 0.62 0.43 0.51 0.70 1.21 1.17 0.88 0.89 0.94 1.13 1.41 1.40 1.22 1.19 1.18 1.09 1.08 1.08
0.18 0.28 0.26 0.24 0.32 0.34 0.36 0.46 0.72 1.00 1.16 1.04 0.89 0.87 0.93 0.94 1.03 1.22 1.24 1.26 1.25 1.13
0.06 0.06 0.08 0.07 0.07 0.06 0.05 0.06 0.09 0.14 0.22 0.30 0.47 0.60 0.62 0.64 0.68 0.74 0.82 0.89 1.02 0.97
0.05 0.04 0.06 0.07 0.07 0.07 0.07 0.08 0.07 0.05 0.05 0.06 0.06 0.07 0.11 0.20 0.33 0.47 0.60 0.69 0.70 0.66
0.08 0.07 0.07 0.06 0.06 0.06 0.07 0.07 0.06 0.08 0.08 0.07 0.06 0.08 0.13 0.17 0.20 0.23 0.28 0.36 0.48 0.58
0.08 0.09 0.07 0.05 0.07 0.07 0.06 0.06 0.04 0.08 0.15 0.17 0.17 0.16 0.13 0.13 0.14 0.18 0.23 0.27 0.31 0.33
0.08 0.08 0.09 0.08 0.05 0.08 0.08 0.08 0.12 0.11 0.11 0.14 0.18 0.36 0.28 0.18 0.16 0.18 0.23 0.28 0.36 0.45
0.13 0.20 0.20 0.15 0.13 0.11 0.15 0.24 0.23 0.22 0.26 0.25 0.24 0.35 0.29 0.34 0.36 0.42 0.47 0.48 0.45 0.37
0.48 0.52 0.60 0.75 0.63 0.64 0.52 0.46 0.54 0.56 0.58 0.64 0.76 0.80 0.68 0.55 0.44 0.46 0.48 0.45 0.40 0.33
0.70 0.74 0.84 1.06 1.14 0.80 0.97 0.78 0.78 0.68 0.55 0.60 0.71 0.67 0.50 0.45 0.39 0.29 0.19 0.14 0.07 0.03
0.75 0.73 0.89 0.99 0.98 0.72 0.61 0.66 0.58 0.63 0.60 0.51 0.43 0.32 0.20 0.12 0.08 0.06 0.02 0.01 0.00 0.02
0.73 0.45 0.61 0.69 0.62 0.47 0.37 0.42 0.43 0.40 0.33 0.23 0.15 0.08 0.05 0.05 0.04 0.03 0.04 0.03 0.01 0.00

GFSNIL_prec_precacc_195.txt.gz
Total_Precipitation_Accumulation
1.48 1.50 1.57 1.54 1.51 1.45 1.41 1.37 1.37 1.41 1.25 1.27 1.40 1.61 1.73 1.58 1.44 1.36 1.35 1.34 1.37 1.40
0.99 1.09 0.97 1.03 0.94 0.89 0.99 1.06 1.13 1.22 1.32 1.26 1.29 1.35 1.36 1.31 1.22 1.16 1.01 0.95 0.99 1.04
0.56 0.78 0.91 0.84 0.77 0.55 0.60 0.74 1.21 1.17 0.88 0.89 0.94 1.13 1.41 1.40 1.22 1.19 1.18 1.09 1.08 1.08
0.24 0.47 0.51 0.44 0.42 0.37 0.37 0.46 0.72 1.00 1.16 1.04 0.89 0.87 0.93 0.94 1.03 1.22 1.24 1.26 1.25 1.13
0.08 0.10 0.13 0.10 0.07 0.06 0.05 0.06 0.09 0.14 0.22 0.30 0.47 0.60 0.62 0.64 0.68 0.74 0.82 0.89 1.02 0.97
0.07 0.07 0.08 0.07 0.07 0.07 0.07 0.08 0.07 0.05 0.05 0.06 0.06 0.07 0.11 0.20 0.33 0.47 0.60 0.69 0.70 0.66
0.11 0.08 0.07 0.06 0.06 0.06 0.07 0.07 0.06 0.08 0.08 0.07 0.06 0.08 0.13 0.17 0.20 0.23 0.28 0.36 0.48 0.58
0.14 0.10 0.07 0.05 0.07 0.07 0.06 0.06 0.04 0.08 0.15 0.17 0.17 0.16 0.13 0.13 0.14 0.18 0.23 0.27 0.31 0.33
0.11 0.08 0.09 0.08 0.05 0.08 0.08 0.08 0.12 0.11 0.11 0.14 0.18 0.36 0.28 0.18 0.16 0.18 0.23 0.28 0.36 0.45
0.13 0.20 0.20 0.15 0.13 0.11 0.15 0.24 0.23 0.22 0.26 0.25 0.24 0.35 0.29 0.34 0.36 0.42 0.47 0.48 0.45 0.37
0.48 0.52 0.60 0.75 0.63 0.64 0.52 0.46 0.54 0.56 0.58 0.64 0.76 0.80 0.68 0.55 0.44 0.46 0.48 0.45 0.40 0.33
0.70 0.74 0.84 1.06 1.14 0.80 0.97 0.78 0.78 0.68 0.55 0.60 0.71 0.67 0.50 0.45 0.39 0.29 0.19 0.14 0.07 0.03
0.75 0.73 0.89 0.99 0.98 0.72 0.61 0.66 0.58 0.63 0.60 0.51 0.43 0.32 0.20 0.12 0.08 0.06 0.02 0.01 0.00 0.02
0.73 0.45 0.61 0.69 0.62 0.47 0.37 0.42 0.43 0.40 0.33 0.23 0.15 0.08 0.05 0.05 0.04 0.03 0.04 0.03 0.01 0.00

GFSNIL_prec_precacc_198.txt.gz
Total_Precipitation_Accumulation
1.75 1.64 1.59 1.55 1.52 1.46 1.41 1.37 1.37 1.41 1.25 1.27 1.40 1.61 1.73 1.58 1.44 1.36 1.35 1.34 1.37 1.40
1.22 1.25 1.08 1.06 0.97 0.92 1.02 1.07 1.13 1.22 1.32 1.26 1.29 1.35 1.36 1.31 1.22 1.16 1.01 0.95 0.99 1.04
0.69 0.91 1.00 0.90 0.85 0.65 0.70 0.83 1.27 1.19 0.89 0.89 0.94 1.13 1.41 1.40 1.22 1.19 1.18 1.09 1.08 1.08
0.27 0.57 0.73 0.71 0.70 0.56 0.45 0.52 0.76 1.01 1.17 1.04 0.89 0.87 0.93 0.94 1.03 1.22 1.24 1.26 1.25 1.13
0.10 0.14 0.28 0.37 0.40 0.28 0.15 0.10 0.11 0.15 0.22 0.30 0.47 0.60 0.62 0.64 0.68 0.74 0.82 0.89 1.02 0.97
0.08 0.16 0.22 0.19 0.18 0.13 0.10 0.09 0.07 0.05 0.05 0.06 0.06 0.07 0.11 0.20 0.33 0.47 0.60 0.69 0.70 0.66
0.13 0.11 0.19 0.18 0.08 0.07 0.07 0.07 0.06 0.08 0.08 0.07 0.06 0.08 0.13 0.17 0.20 0.23 0.28 0.36 0.48 0.58
0.24 0.17 0.09 0.06 0.07 0.07 0.06 0.06 0.04 0.08 0.15 0.17 0.17 0.16 0.13 0.13 0.14 0.18 0.23 0.27 0.31 0.33
0.23 0.16 0.11 0.08 0.05 0.08 0.08 0.08 0.12 0.11 0.11 0.14 0.18 0.36 0.28 0.18 0.16 0.18 0.23 0.28 0.36 0.45
0.23 0.23 0.20 0.15 0.13 0.11 0.15 0.24 0.23 0.22 0.26 0.25 0.24 0.35 0.29 0.34 0.36 0.42 0.47 0.48 0.45 0.37
0.51 0.53 0.60 0.75 0.63 0.64 0.52 0.46 0.54 0.56 0.58 0.64 0.76 0.80 0.68 0.55 0.44 0.46 0.48 0.45 0.40 0.33
0.70 0.74 0.84 1.06 1.14 0.80 0.97 0.78 0.78 0.68 0.55 0.60 0.71 0.67 0.50 0.45 0.39 0.29 0.19 0.14 0.07 0.03
0.75 0.73 0.89 0.99 0.98 0.72 0.61 0.66 0.58 0.63 0.60 0.51 0.43 0.32 0.20 0.12 0.08 0.06 0.02 0.01 0.00 0.02
0.73 0.45 0.61 0.69 0.62 0.47 0.37 0.42 0.43 0.40 0.33 0.23 0.15 0.08 0.05 0.05 0.04 0.03 0.04 0.03 0.01 0.00

GFSNIL_prec_precacc_201.txt.gz
Total_Precipitation_Accumulation
2.11 1.87 1.66 1.56 1.52 1.46 1.41 1.37 1.37 1.41 1.25 1.27 1.40 1.61 1.73 1.58 1.44 1.36 1.35 1.34 1.37 1.40
1.26 1.27 1.10 1.10 0.99 0.93 1.02 1.07 1.13 1.22 1.32 1.26 1.29 1.35 1.36 1.31 1.22 1.16 1.01 0.95 0.99 1.04
0.71 0.92 1.01 0.93 0.91 0.73 0.78 0.91 1.35 1.25 0.95 0.94 0.98 1.15 1.42 1.40 1.22 1.19 1.18 1.09 1.08 1.08
0.29 0.58 0.74 0.73 0.78 0.69 0.62 0.75 1.01 1.19 1.28 1.12 0.94 0.89 0.94 0.94 1.03 1.22 1.24 1.26 1.25 1.13
0.11 0.14 0.28 0.37 0.45 0.41 0.28 0.19 0.20 0.24 0.30 0.33 0.47 0.60 0.62 0.64 0.68 0.74 0.82 0.89 1.02 0.97
0.10 0.17 0.22 0.20 0.21 0.21 0.20 0.17 0.12 0.08 0.06 0.06 0.06 0.07 0.11 0.20 0.33 0.47 0.60 0.69 0.70 0.66
0.14 0.12 0.20 0.24 0.15 0.11 0.11 0.09 0.06 0.08 0.08 0.07 0.06 0.08 0.13 0.17 0.20 0.23 0.28 0.36 0.48 0.58
0.28 0.23 0.12 0.09 0.12 0.10 0.07 0.06 0.04 0.08 0.15 0.17 0.17 0.16 0.13 0.13 0.14 0.18 0.23 0.27 0.31 0.33
0.35 0.33 0.21 0.12 0.05 0.08 0.08 0.08 0.12 0.11 0.11 0.14 0.18 0.36 0.28 0.18 0.16 0.18 0.23 0.28 0.36 0.45
0.57 0.46 0.33 0.22 0.14 0.11 0.15 0.24 0.23 0.22 0.26 0.25 0.24 0.35 0.29 0.34 0.36 0.42 0.47 0.48 0.45 0.37
0.82 0.74 0.73 0.78 0.63 0.64 0.52 0.46 0.54 0.56 0.58 0.64 0.76 0.80 0.68 0.55 0.44 0.46 0.48 0.45 0.40 0.33
0.81 0.79 0.85 1.06 1.14 0.80 0.97 0.78 0.78 0.68 0.55 0.60 0.71 0.67 0.50 0.45 0.39 0.29 0.19 0.14 0.07 0.03
0.75 0.73 0.89 0.99 0.98 0.73 0.61 0.66 0.58 0.63 0.60 0.51 0.43 0.32 0.20 0.12 0.08 0.06 0.02 0.01 0.00 0.02
0.73 0.45 0.61 0.69 0.62 0.47 0.37 0.42 0.43 0.40 0.33 0.23 0.15 0.08 0.05 0.05 0.04 0.03 0.04 0.03 0.01 0.00

GFSNIL_prec_precacc_204.txt.gz
Total_Precipitation_Accumulation
2.32 2.11 1.73 1.58 1.52 1.46 1.41 1.37 1.37 1.41 1.25 1.27 1.40 1.61 1.73 1.58 1.44 1.36 1.35 1.34 1.37 1.40
1.31 1.44 1.19 1.17 1.03 0.94 1.02 1.07 1.13 1.22 1.32 1.26 1.29 1.35 1.36 1.31 1.22 1.16 1.01 0.95 0.99 1.04
0.78 0.96 1.05 0.94 0.91 0.73 0.79 0.92 1.36 1.25 0.95 0.94 0.99 1.15 1.43 1.41 1.24 1.20 1.18 1.09 1.08 1.08
0.33 0.63 0.78 0.77 0.80 0.69 0.62 0.75 1.01 1.21 1.30 1.14 0.97 0.94 0.97 0.96 1.04 1.23 1.24 1.26 1.25 1.13
0.16 0.18 0.32 0.41 0.47 0.41 0.28 0.19 0.20 0.25 0.32 0.36 0.50 0.62 0.63 0.64 0.68 0.74 0.82 0.89 1.02 0.97
0.14 0.19 0.25 0.22 0.22 0.21 0.20 0.17 0.12 0.09 0.09 0.08 0.07 0.07 0.11 0.20 0.33 0.47 0.60 0.69 0.70 0.66
0.20 0.13 0.22 0.27 0.17 0.12 0.11 0.09 0.07 0.08 0.08 0.07 0.06 0.08 0.13 0.17 0.20 0.23 0.28 0.36 0.48 0.58
0.32 0.24 0.13 0.15 0.20 0.16 0.10 0.08 0.05 0.08 0.15 0.17 0.17 0.16 0.13 0.13 0.14 0.18 0.23 0.27 0.31 0.33
0.44 0.41 0.26 0.23 0.22 0.18 0.15 0.10 0.12 0.11 0.11 0.14 0.18 0.36 0.28 0.18 0.16 0.18 0.23 0.28 0.36 0.45
0.82 0.76 0.57 0.42 0.33 0.24 0.20 0.25 0.23 0.22 0.26 0.25 0.24 0.35 0.29 0.34 0.36 0.42 0.47 0.48 0.45 0.37
1.21 1.11 1.10 0.97 0.74 0.68 0.53 0.46 0.54 0.56 0.58 0.64 0.76 0.80 0.68 0.55 0.44 0.46 0.48 0.45 0.40 0.33
1.10 1.06 1.03 1.12 1.16 0.80 0.97 0.78 0.78 0.68 0.55 0.60 0.71 0.67 0.50 0.45 0.39 0.29 0.19 0.14 0.07 0.03
0.86 0.83 0.94 1.00 0.98 0.73 0.61 0.66 0.59 0.63 0.60 0.51 0.43 0.32 0.20 0.12 0.08 0.06 0.02 0.01 0.00 0.02
0.73 0.46 0.61 0.69 0.62 0.47 0.38 0.42 0.43 0.40 0.33 0.23 0.15 0.08 0.05 0.05 0.04 0.03 0.04 0.03 0.01 0.00